TimeCDT,TemperatureF,Dew PointF,Humidity,Sea Level PressureIn,VisibilityMPH,Wind Direction,Wind SpeedMPH,Gust SpeedMPH,PrecipitationIn,Events,Conditions,WindDirDegrees,DateUTC
12:22 AM,66.2,64.4,94,29.72,5.0,Calm,Calm,-,0.08,Rain,Light Rain,0,2013-05-21 05:22:00
12:30 AM,66.2,64.4,94,29.70,9.0,Calm,Calm,-,0.09,Rain-Thunderstorm,Light Rain,0,2013-05-21 05:30:00
12:45 AM,66.2,64.4,94,29.74,10.0,SSW,9.2,-,0.09,,Overcast,210,2013-05-21 05:45:00
12:53 AM,66.9,63.0,87,29.71,10.0,SSW,9.2,-,0.09,Rain,Light Rain,210,2013-05-21 05:53:00
1:53 AM,66.0,63.0,90,29.67,10.0,SSE,8.1,-,0.00,,Clear,160,2013-05-21 06:53:00
2:53 AM,66.0,61.0,84,29.66,10.0,South,8.1,-,N/A,,Clear,180,2013-05-21 07:53:00
3:53 AM,66.0,61.0,84,29.65,10.0,SSW,9.2,-,N/A,,Clear,210,2013-05-21 08:53:00
4:53 AM,64.9,60.1,84,29.66,10.0,SSW,12.7,18.4,N/A,,Clear,200,2013-05-21 09:53:00
5:53 AM,64.9,59.0,81,29.68,10.0,SSW,12.7,-,N/A,,Clear,210,2013-05-21 10:53:00
6:53 AM,64.0,59.0,84,29.68,10.0,SSW,11.5,17.3,N/A,,Clear,210,2013-05-21 11:53:00
7:53 AM,66.9,60.1,79,29.68,10.0,SW,13.8,21.9,N/A,,Clear,230,2013-05-21 12:53:00
8:36 AM,69.8,62.6,78,29.70,10.0,SW,13.8,19.6,N/A,,Mostly Cloudy,230,2013-05-21 13:36:00
8:53 AM,70.0,62.1,76,29.69,10.0,SW,9.2,20.7,N/A,,Mostly Cloudy,230,2013-05-21 13:53:00
9:53 AM,72.0,62.1,71,29.69,10.0,SW,11.5,-,N/A,,Mostly Cloudy,220,2013-05-21 14:53:00
10:00 AM,71.6,62.6,73,29.69,10.0,SW,12.7,-,N/A,,Scattered Clouds,220,2013-05-21 15:00:00
10:53 AM,75.9,64.9,69,29.68,10.0,SW,10.4,-,N/A,,Mostly Cloudy,230,2013-05-21 15:53:00
11:32 AM,75.2,62.6,65,29.70,10.0,SW,16.1,23.0,N/A,,Mostly Cloudy,230,2013-05-21 16:32:00
11:53 AM,75.9,62.1,62,29.69,10.0,SW,12.7,23.0,N/A,,Scattered Clouds,220,2013-05-21 16:53:00
12:53 PM,79.0,62.1,56,29.66,10.0,South,15.0,-,N/A,,Scattered Clouds,180,2013-05-21 17:53:00
1:53 PM,80.1,61.0,52,29.66,10.0,SSW,16.1,26.5,N/A,,Mostly Cloudy,210,2013-05-21 18:53:00
2:53 PM,79.0,57.9,48,29.65,10.0,SSW,25.3,29.9,N/A,,Mostly Cloudy,200,2013-05-21 19:53:00
3:53 PM,78.1,57.9,50,29.65,10.0,SW,16.1,29.9,N/A,,Mostly Cloudy,230,2013-05-21 20:53:00
4:53 PM,81.0,60.1,49,29.65,10.0,SW,12.7,-,N/A,,Mostly Cloudy,220,2013-05-21 21:53:00
5:53 PM,80.1,55.9,43,29.64,10.0,WSW,19.6,26.5,N/A,,Partly Cloudy,250,2013-05-21 22:53:00
6:53 PM,78.1,55.0,45,29.65,10.0,WSW,12.7,21.9,N/A,,Clear,250,2013-05-21 23:53:00
7:53 PM,73.9,54.0,50,29.68,10.0,WSW,10.4,-,N/A,,Clear,240,2013-05-22 00:53:00
8:53 PM,68.0,54.0,61,29.68,10.0,West,5.8,-,N/A,,Clear,260,2013-05-22 01:53:00
9:53 PM,69.1,55.0,61,29.70,10.0,SSW,4.6,-,N/A,,Clear,210,2013-05-22 02:53:00
10:53 PM,61.0,54.0,78,29.68,10.0,Calm,Calm,-,N/A,,Clear,0,2013-05-22 03:53:00
11:53 PM,64.0,55.9,75,29.68,10.0,Calm,Calm,-,N/A,,Overcast,0,2013-05-22 04:53:00